Погода в Еланце

Украина / Николаевская область     47°41′45″N   31°51′14″E
темп.,
°C
ветер,
м/с
пор.,
м/с
влажн.,
%
обл.,
%
осадки,
мм/ч
давл.,
гПа
погр.,
м
14 апреля, ср
ср1400:00+6ююв379070 0.0 1019164
03:00+5ююв35925 0.0 1019100
06:00+4юв33936 0.0 101838
09:00+9ююв347548 0.0 1018389
12:00+11юв456699 0.0 1016778
15:00+14ю4553100 0.1 10141732
18:00+12ссв2267100 0.1 1013168
21:00+9юз5778100 0.2 1014291
15 апреля, чт
чт1500:00+8ююз1193100 1.3 101371
03:00+8вюв3793100 2.1 1012350
06:00+8вюв5997100 2.6 1010534
09:00+8ююв5892100 3.1 1011565
12:00+11ю5673100 0.4 1011921
15:00+12ю566370 1.1 10101161
18:00+11ю436499 0.0 10111076
21:00+8ююв348573 0.1 1011156
16 апреля, пт
пт1600:00+7ю349581 0.0 101197
03:00+6юз4797100 0.0 1011201
06:00+7юз5794100 0.1 1011403
09:00+6юз6890100 0.3 1013428
12:00+7юз6786100 0.0 1014734
15:00+5зюз5594100 0.3 1015753
18:00+4зюз4696100 0.1 1016661
21:00+5зюз4794100 0.2 1018541
17 апреля, сб
сб1700:00+5зюз4792100 0.3 1018820
03:00+5з4789100 0.3 1019464
06:00+5зсз4686100 0.0 1020453
09:00+7зсз457329 0.0 1021676
12:00+10з5662100 0.0 10211280
15:00+11зсз565799 0.1 10211551
18:00+11сз3464100 0.0 1021586
21:00+8ссв2374100 0.0 102285
18 апреля, вс
вс1800:00+7ссв227976 0.0 102122
03:00+6св2281100 0.0 102140
06:00+6св227787 0.0 102058
09:00+9св2266100 0.0 1020371
12:00+13зсз2250100 0.0 10201486
15:00+14с3347100 0.0 10201836
18:00+12св345455 0.0 1020801
21:00+9св3467100 0.0 102151